Location: Ellingshausen
(50.5460°N, 10.4723°E)
Time: 09:12:56
(UTC+00:00)

Nadezhda 3 Rocket - Pass Details

Date: 18 January 2026
Orbit: 956 x 997 km, 82.9° (Epoch: 18 February)

Event Time Altitude Azimuth Distance (km) Brightness Sun altitude
Rises 05:28:24 0° 345° (NNW) 3,678 6.7 -15.7°
Reaches altitude 10° 05:31:01 10° 339° (NNW) 2,733 6.0 -15.3°
Maximum altitude 05:36:51 43° 271° (W) 1,361 4.3 -14.4°
Drops below altitude 10° 05:42:42 10° 202° (SSW) 2,742 6.3 -13.5°
Sets 05:45:20 0° 196° (SSW) 3,691 7.0 -13.1°
